This demonstration page uses our WeatherBlox Daily Observations layout. Learn more.

Left ArrowRight Arrow

39.01783, -85.05884

Hourly Observations for September 21, 2017

Temp ( °F °C ) Dew Point ( °F °C ) Humidity (%) Winds ( mph kmh ) Pressure ( in mb ) Visibility ( mi km ) Precip ( " mm )
12:52 am 00:52 Clear 71 21.7 70 21.1 96 96 S 5 7 30.00 1016 9 14 0.00 0.00
1:52 am 01:52 Clear 68 20 68 20 100 100 Calm 30.02 1017 8 13 0.00 0.00
2:52 am 02:52 Clear 69 20.6 69 20.6 100 100 Calm 30.03 1017 7 11 0.00 0.00
3:52 am 03:52 Clear with Mist and Fog 67 19.4 67 19.4 100 100 SSE 3 6 30.03 1017 6 10 0.00 0.00
4:52 am 04:52 Mostly Clear 68 20 68 20 100 100 Calm 30.03 1017 7 11 0.00 0.00
5:52 am 05:52 Mostly Clear 68 20 68 20 100 100 Calm 30.04 1017 7 11 0.00 0.00
6:52 am 06:52 Mostly Clear 67 19.4 67 19.4 100 100 Calm 30.06 1018 7 11 0.00 0.00
7:52 am 07:52 Partly Cloudy with Mist and Fog 67 19.4 67 19.4 100 100 SE 3 6 30.08 1019 5 8 0.00 0.00
8:52 am 08:52 Mostly Sunny 72 22.2 71 21.7 97 97 Calm 30.08 1019 8 13 0.00 0.00
9:52 am 09:52 Sunny 76 24.4 72 22.2 88 88 S 5 7 30.09 1019 10 16 0.00 0.00
10:52 am 10:52 Sunny 81 27.2 73 22.8 77 77 Calm 30.09 1019 10 16 0.00 0.00
11:52 am 11:52 Mostly Sunny 84 28.9 73 22.8 70 70 W 5 7 30.09 1019 10 16 0.00 0.00
12:52 pm 12:52 Partly Cloudy 83 28.3 73 22.8 72 72 SE 5 7 30.08 1019 10 16 0.00 0.00
1:52 pm 13:52 Partly Cloudy 87 30.6 73 22.8 63 63 VRB 3 6 30.06 1018 10 16 0.00 0.00
2:52 pm 14:52 Partly Cloudy 87 30.6 71 21.7 59 59 Calm 30.04 1017 10 16 0.00 0.00
3:52 pm 15:52 Partly Cloudy 88 31.1 72 22.2 59 59 W 5 7 30.03 1017 10 16 0.00 0.00
4:52 pm 16:52 Partly Cloudy 87 30.6 71 21.7 59 59 SSW 3 6 30.01 1016 10 16 0.00 0.00
5:52 pm 17:52 Mostly Cloudy 88 31.1 70 21.1 55 55 Calm 30.01 1016 10 16 0.00 0.00
6:20 pm 18:20 Mostly Cloudy with Thunderstorms 83 28.3 72 22.2 70 70 S 8 13 29.97 1015 10 16 0.00 0.00
6:52 pm 18:52 Mostly Cloudy with Thunderstorms 80 26.7 71 21.7 74 74 WSW 6 9 30.02 1017 6 10 0.01 0.25
7:07 pm 19:07 Mostly Cloudy 79 26.1 72 22.2 79 79 W 6 9 30.00 1016 10 16 0.00 0.03
7:52 pm 19:52 Mostly Cloudy 75 23.9 73 22.8 94 94 SSE 3 6 30.02 1017 8 13 0.00 0.03
8:52 pm 20:52 Mostly Cloudy 77 25 71 21.7 82 82 Calm 30.03 1017 10 16 0.00 0.00
9:52 pm 21:52 Mostly Clear 74 23.3 72 22.2 94 94 Calm 30.04 1017 9 14 0.00 0.00
10:52 pm 22:52 Partly Cloudy 73 22.8 71 21.7 94 94 Calm 30.05 1018 8 13 0.00 0.00
11:52 pm 23:52 Mostly Clear 75 23.9 72 22.2 90 90 Calm 30.04 1017 8 13 0.00 0.00

Powered by AerisWeather